EW9298 Weather Reports


Display with metric or nautical units.
time (UTC)temp
F
wind
direction
speed
MPH
gust
MPH
rain 1hr
in
rain 24hr
in
rain mn
in
humidity
%
barometer
mb
20190215231204 56 0 2.0 10.0 0.00 0.00 0.00 26 1002.5
20190215230705 57 31 1.0 5.0 0.00 0.00 0.00 25 1002.4
20190215230204 57 309 0.0 5.0 0.00 0.00 0.00 19 1002.5
20190215225705 57 291 0.0 5.0 0.00 0.00 0.00 20 1002.3
20190215225205 57 281 0.0 4.0 0.00 0.00 0.00 19 1002.3
20190215224704 57 281 0.0 7.0 0.00 0.00 0.00 20 1002.4
20190215224205 57 281 1.0 7.0 0.00 0.00 0.00 20 1002.2
20190215223704 57 225 2.0 7.0 0.00 0.00 0.00 20 1002.2
20190215223205 56 292 2.0 8.0 0.00 0.00 0.00 20 1002.2
20190215222704 56 250 3.0 8.0 0.00 0.00 0.00 21 1002.2
20190215222204 56 296 3.0 8.0 0.00 0.00 0.00 22 1002.3
20190215221704 56 282 2.0 7.0 0.00 0.00 0.00 20 1002.3
20190215221204 56 306 2.0 7.0 0.00 0.00 0.00 21 1002.4
20190215220704 56 355 2.0 8.0 0.00 0.00 0.00 22 1002.5
20190215220204 56 298 2.0 9.0 0.00 0.00 0.00 22 1002.5
20190215215704 56 325 3.0 9.0 0.00 0.00 0.00 22 1002.4
20190215215205 56 248 3.0 9.0 0.00 0.00 0.00 22 1002.4
20190215214704 56 277 3.0 12.0 0.00 0.00 0.00 23 1002.4
20190215214204 56 292 4.0 12.0 0.00 0.00 0.00 22 1002.3
20190215213704 57 287 4.0 12.0 0.00 0.00 0.00 21 1002.3
20190215213204 57 336 3.0 9.0 0.00 0.00 0.00 21 1002.3
20190215212705 57 299 3.0 9.0 0.00 0.00 0.00 20 1002.4
20190215212204 57 298 3.0 7.0 0.00 0.00 0.00 20 1002.5
20190215211704 58 302 2.0 7.0 0.00 0.00 0.00 21 1002.3
20190215211204 58 299 2.0 7.0 0.00 0.00 0.00 21 1002.3
20190215210704 58 312 1.0 7.0 0.00 0.00 0.00 21 1002.3
20190215210204 58 255 1.0 6.0 0.00 0.00 0.00 22 1002.4
20190215205704 57 239 1.0 10.0 0.00 0.00 0.00 23 1002.3
20190215205204 57 288 2.0 10.0 0.00 0.00 0.00 23 1002.3
20190215204704 56 306 2.0 7.0 0.00 0.00 0.00 24 1002.3
20190215204205 56 349 2.0 7.0 0.00 0.00 0.00 25 1002.3
20190215203704 56 177 2.0 7.0 0.00 0.00 0.00 26 1002.2
20190215203205 55 309 2.0 7.0 0.00 0.00 0.00 26 1002.2
20190215202705 54 260 2.0 9.0 0.00 0.00 0.00 30 1002.1
20190215202205 53 313 3.0 10.0 0.00 0.00 0.00 33 1002.1
20190215201704 54 330 3.0 10.0 0.00 0.00 0.00 32 1002.2
20190215201204 53 321 2.0 10.0 0.00 0.00 0.00 29 1002.3
20190215200704 52 315 2.0 7.0 0.00 0.00 0.00 35 1002.2
20190215200204 52 305 2.0 7.0 0.00 0.00 0.00 36 1002.7
20190215195704 51 345 2.0 7.0 0.00 0.00 0.00 37 1002.7
20190215195204 51 298 2.0 6.0 0.00 0.00 0.00 38 1002.9
20190215194704 51 348 1.0 6.0 0.00 0.00 0.00 36 1003.0
20190215194205 51 319 1.0 6.0 0.00 0.00 0.00 36 1003.0
20190215193704 51 302 1.0 5.0 0.00 0.00 0.00 34 1003.1
20190215193204 51 233 1.0 5.0 0.00 0.00 0.00 35 1003.1
20190215192704 51 316 1.0 5.0 0.00 0.00 0.00 36 1003.2
20190215192204 50 311 1.0 4.0 0.00 0.00 0.00 37 1003.4
20190215191705 50 310 0.0 4.0 0.00 0.00 0.00 39 1003.6
20190215191204 49 278 1.0 6.0 0.00 0.00 0.00 40 1003.7
20190215190704 49 317 1.0 7.0 0.00 0.00 0.00 42 1003.6
20190215190204 47 347 1.0 7.0 0.00 0.00 0.00 43 1003.6
20190215185704 46 57 2.0 7.0 0.00 0.00 0.00 45 1003.5
20190215185205 46 29 2.0 6.0 0.00 0.00 0.00 48 1003.5
20190215184705 46 5 2.0 5.0 0.00 0.00 0.00 48 1003.7
20190215184204 45 114 1.0 5.0 0.00 0.00 0.00 48 1003.8
20190215183704 45 43 1.0 4.0 0.00 0.00 0.00 48 1003.8
20190215183205 45 45 0.0 4.0 0.00 0.00 0.00 48 1003.8
20190215182704 45 74 0.0 3.0 0.00 0.00 0.00 49 1003.8
20190215182205 44 340 0.0 5.0 0.00 0.00 0.00 50 1003.8
20190215181704 43 58 1.0 5.0 0.00 0.00 0.00 51 1003.6
20190215181205 42 58 1.0 5.0 0.00 0.00 0.00 52 1003.5
20190215180704 41 333 1.0 5.0 0.00 0.00 0.00 55 1003.2
20190215180205 40 119 1.0 5.0 0.00 0.00 0.00 57 1003.5
20190215175704 39 345 1.0 5.0 0.00 0.00 0.00 58 1003.4
20190215175205 38 16 1.0 4.0 0.00 0.00 0.00 58 1003.7
20190215174704 37 112 0.0 5.0 0.00 0.00 0.00 59 1003.8
20190215174204 37 108 1.0 5.0 0.00 0.00 0.00 60 1003.6
20190215173704 36 97 1.0 6.0 0.00 0.00 0.00 61 1003.5
20190215173204 35 137 1.0 6.0 0.00 0.00 0.00 63 1003.5
20190215172705 35 112 1.0 5.0 0.00 0.00 0.00 65 1003.4
20190215172204 34 117 0.0 3.0 0.00 0.00 0.00 65 1003.9
20190215171704 33 125 0.0 3.0 0.00 0.00 0.00 64 1003.7
20190215171204 33 125 1.0 3.0 0.00 0.00 0.00 66 1003.4
20190215170704 32 124 1.0 5.0 0.00 0.00 0.00 68 1003.4
20190215170204 32 100 1.0 6.0 0.00 0.00 0.00 68 1003.2
20190215165706 31 107 1.0 6.0 0.00 0.00 0.00 68 1003.5
20190215165205 31 14 1.0 3.0 0.00 0.00 0.00 68 1003.1
20190215164704 31 9 1.0 3.0 0.00 0.00 0.00 69 1003.4
20190215164205 30 88 0.0 3.0 0.00 0.00 0.00 70 1003.4
20190215163704 29 96 0.0 4.0 0.00 0.00 0.00 72 1003.1
20190215163204 29 101 1.0 4.0 0.00 0.00 0.00 73 1003.0
20190215162704 28 109 0.0 4.0 0.00 0.00 0.00 74 1003.0
20190215162205 28 210 0.0 5.0 0.00 0.00 0.00 75 1002.9
20190215161704 27 210 0.0 5.0 0.00 0.00 0.00 75 1002.7
20190215161204 27 210 0.0 5.0 0.00 0.00 0.00 75 1002.7
20190215160704 26 97 0.0 4.0 0.00 0.00 0.00 76 1002.5
20190215160204 26 166 0.0 4.0 0.00 0.00 0.00 77 1002.5
20190215155704 25 86 0.0 4.0 0.00 0.00 0.00 77 1002.7
20190215155204 25 190 0.0 3.0 0.00 0.00 0.00 77 1003.0
20190215154704 25 221 0.0 2.0 0.00 0.00 0.00 78 1003.1
20190215154205 24 321 0.0 1.0 0.00 0.00 0.00 77 1003.4
20190215153704 24 321 0.0 2.0 0.00 0.00 0.00 78 1003.4
20190215153204 24 321 0.0 3.0 0.00 0.00 0.00 77 1003.9
20190215152705 24 321 0.0 3.0 0.00 0.00 0.00 77 1003.6
20190215152204 24 321 0.0 3.0 0.00 0.00 0.00 78 1003.8
20190215151704 24 298 0.0 3.0 0.00 0.00 0.00 78 1004.1
20190215151204 23 5 1.0 4.0 0.00 0.00 0.00 79 1004.2
20190215150704 23 40 1.0 5.0 0.00 0.00 0.00 80 1003.9
20190215150205 23 338 1.0 5.0 0.00 0.00 0.00 80 1004.2
20190215145704 23 316 0.0 3.0 0.00 0.00 0.00 82 1004.1
20190215145204 22 314 0.0 3.0 0.00 0.00 0.00 83 1004.2
20190215144704 22 35 0.0 3.0 0.00 0.00 0.00 84 1003.6
20190215144204 22 38 0.0 3.0 0.00 0.00 0.00 85 1003.6
20190215143705 22 115 0.0 3.0 0.00 0.00 0.00 86 1003.8
20190215143204 22 42 0.0 1.0 0.00 0.00 0.00 87 1003.7
20190215142704 21 319 0.0 0.0 0.00 0.00 0.00 88 1003.4
20190215142205 21 319 0.0 0.0 0.00 0.00 0.00 88 1004.1
20190215141704 21 318 0.0 0.0 0.00 0.00 0.00 87 1003.5
20190215141204 21 319 0.0 0.0 0.00 0.00 0.00 87 1003.5
20190215140705 21 319 0.0 0.0 0.00 0.00 0.00 86 1003.6
20190215140204 21 319 0.0 0.0 0.00 0.00 0.00 86 1003.2
20190215135704 21 319 0.0 0.0 0.00 0.00 0.00 86 1003.5
20190215135205 21 319 0.0 0.0 0.00 0.00 0.00 85 1003.5
20190215134705 21 319 0.0 0.0 0.00 0.00 0.00 85 1003.5
20190215134204 21 319 0.0 0.0 0.00 0.00 0.00 85 1003.4
20190215133705 21 319 0.0 0.0 0.00 0.00 0.00 84 1003.4
20190215133205 21 319 0.0 0.0 0.00 0.00 0.00 84 1003.5
20190215132705 21 319 0.0 0.0 0.00 0.00 0.00 84 1003.4
20190215132205 22 319 0.0 0.0 0.00 0.00 0.00 84 1003.7
20190215131705 22 319 0.0 0.0 0.00 0.00 0.00 83 1003.8
20190215131205 22 319 0.0 0.0 0.00 0.00 0.00 83 1003.8
20190215130705 22 319 0.0 0.0 0.00 0.00 0.00 83 1003.8
20190215130204 22 319 0.0 0.0 0.00 0.00 0.00 83 1003.6
20190215125704 22 319 0.0 0.0 0.00 0.00 0.00 83 1003.6
20190215125205 22 319 0.0 0.0 0.00 0.00 0.00 83 1003.7
20190215124705 22 319 0.0 0.0 0.00 0.00 0.00 83 1003.7
20190215124204 22 319 0.0 0.0 0.00 0.00 0.00 82 1003.5
20190215123704 22 319 0.0 0.0 0.00 0.00 0.00 82 1003.6
20190215123205 22 319 0.0 0.0 0.00 0.00 0.00 82 1003.5
20190215122705 23 319 0.0 0.0 0.00 0.00 0.00 82 1003.2
20190215122205 23 319 0.0 0.0 0.00 0.00 0.00 81 1003.1
20190215121705 23 319 0.0 0.0 0.00 0.00 0.00 81 1003.2
20190215121205 23 319 0.0 0.0 0.00 0.00 0.00 80 1003.1
20190215120705 23 319 0.0 3.0 0.00 0.00 0.00 80 1003.1
20190215120205 23 319 0.0 3.0 0.00 0.00 0.00 80 1003.0
20190215115704 24 319 0.0 5.0 0.00 0.00 0.00 79 1003.1
20190215115204 24 13 0.0 5.0 0.00 0.00 0.00 78 1002.9
20190215114704 24 13 1.0 7.0 0.00 0.00 0.00 78 1002.7
20190215114204 24 355 2.0 7.0 0.00 0.00 0.00 77 1003.1
20190215113704 24 40 3.0 7.0 0.00 0.00 0.00 78 1003.2
20190215113204 24 340 3.0 7.0 0.00 0.00 0.00 78 1003.7
20190215112704 24 299 3.0 6.0 0.00 0.00 0.00 78 1004.2
20190215112204 24 308 2.0 6.0 0.00 0.00 0.00 78 1003.1
20190215111705 24 326 2.0 5.0 0.00 0.00 0.00 78 1003.1
20190215111204 24 350 1.0 5.0 0.00 0.00 0.00 78 1002.9
20190215110704 24 327 1.0 5.0 0.00 0.00 0.00 79 1003.2
20190215110205 24 312 1.0 5.0 0.00 0.00 0.00 79 1002.5
20190215105704 24 39 1.0 5.0 0.00 0.00 0.00 79 1002.4
20190215105204 24 346 1.0 7.0 0.00 0.00 0.00 79 1002.2
20190215104704 25 355 1.0 7.0 0.00 0.00 0.00 80 1002.4
20190215104205 25 0 1.0 6.0 0.00 0.00 0.00 79 1002.4
20190215103705 25 70 1.0 6.0 0.00 0.00 0.00 80 1002.3
20190215103205 25 9 1.0 4.0 0.00 0.00 0.00 80 1002.0
20190215102704 25 350 0.0 4.0 0.00 0.00 0.00 80 1002.3
20190215102204 25 326 0.0 6.0 0.00 0.00 0.00 80 1001.8
20190215101705 25 343 0.0 6.0 0.00 0.00 0.00 80 1002.3
20190215101205 25 32 1.0 6.0 0.00 0.00 0.00 80 1002.2
20190215095704 25 342 1.0 8.0 0.00 0.00 0.00 79 1002.5
20190215095204 25 342 1.0 8.0 0.00 0.00 0.00 80 1002.1
20190215094704 26 13 1.0 4.0 0.00 0.00 0.00 80 1002.0
20190215094204 26 57 1.0 4.0 0.00 0.00 0.00 80 1002.3
20190215093704 26 335 1.0 4.0 0.00 0.00 0.00 79 1002.1
20190215093205 26 0 1.0 4.0 0.00 0.00 0.00 79 1002.4
20190215092704 26 297 1.0 5.0 0.00 0.00 0.00 79 1002.5
20190215092204 26 346 1.0 5.0 0.00 0.00 0.00 79 1002.0
20190215091704 26 53 1.0 5.0 0.00 0.00 0.00 79 1002.1
20190215091204 26 319 1.0 7.0 0.00 0.00 0.00 79 1001.7
20190215090705 27 65 2.0 7.0 0.00 0.00 0.00 78 1002.0
20190215090204 27 319 2.0 7.0 0.00 0.00 0.00 77 1001.7
20190215085704 27 50 1.0 5.0 0.00 0.00 0.00 77 1002.0
20190215085204 27 348 1.0 5.0 0.00 0.00 0.00 77 1003.5
20190215084705 27 335 1.0 4.0 0.00 0.00 0.00 77 1003.2
20190215084204 27 293 1.0 7.0 0.00 0.00 0.00 77 1003.2
20190215083704 27 5 1.0 7.0 0.00 0.00 0.00 78 1003.2
20190215083205 27 331 1.0 7.0 0.00 0.00 0.00 78 1002.8
20190215082704 27 330 1.0 5.0 0.00 0.00 0.00 78 1002.8
20190215082205 27 9 1.0 5.0 0.00 0.00 0.00 78 1002.8
20190215081704 27 331 0.0 5.0 0.00 0.00 0.00 78 1002.8
20190215081205 27 309 1.0 5.0 0.00 0.00 0.00 78 1002.7
20190215080704 27 338 1.0 5.0 0.00 0.00 0.00 78 1002.7
20190215080205 27 319 1.0 5.0 0.00 0.00 0.00 78 1002.7
20190215075704 27 29 1.0 5.0 0.00 0.00 0.00 78 1002.8
20190215075204 27 309 0.0 4.0 0.00 0.00 0.00 78 1003.2
20190215074704 27 5 0.0 4.0 0.00 0.00 0.00 78 1002.9
20190215074204 27 344 0.0 5.0 0.00 0.00 0.00 78 1003.1
20190215073704 27 355 1.0 5.0 0.00 0.00 0.00 78 1003.4
20190215073204 27 329 1.0 4.0 0.00 0.00 0.00 78 1003.5
20190215072704 28 329 0.0 4.0 0.00 0.00 0.00 78 1003.6
20190215072205 28 106 0.0 4.0 0.00 0.00 0.00 77 1003.5
20190215071704 28 342 1.0 4.0 0.00 0.00 0.00 77 1003.9
20190215071204 28 325 0.0 4.0 0.00 0.00 0.00 77 1003.6
20190215070704 28 60 1.0 4.0 0.00 0.00 0.00 77 1003.7
20190215070204 28 12 1.0 4.0 0.00 0.00 0.00 77 1003.9
20190215065705 28 17 1.0 3.0 0.00 0.00 0.00 78 1004.2
20190215065204 28 323 0.0 3.0 0.00 0.00 0.00 78 1004.3
20190215064704 28 323 0.0 3.0 0.00 0.00 0.00 78 1004.4
20190215064205 28 323 0.0 3.0 0.00 0.00 0.00 77 1004.5
20190215063704 28 323 0.0 4.0 0.00 0.00 0.00 77 1004.5
20190215063205 28 323 0.0 4.0 0.00 0.00 0.00 77 1004.4
20190215062704 28 322 0.0 4.0 0.00 0.00 0.00 76 1004.5
20190215062204 29 34 0.0 1.0 0.00 0.00 0.00 77 1004.5
20190215061705 29 34 0.0 2.0 0.00 0.00 0.00 76 1004.7
20190215061204 29 34 0.0 2.0 0.00 0.00 0.00 76 1005.2
20190215060705 29 34 0.0 2.0 0.00 0.00 0.00 76 1005.1
20190215060204 29 34 0.0 0.0 0.00 0.00 0.00 76 1005.2
20190215055704 29 34 0.0 0.0 0.00 0.00 0.00 76 1005.0
20190215055204 29 34 0.0 1.0 0.00 0.00 0.00 76 1005.5
20190215054704 29 34 0.0 1.0 0.00 0.00 0.00 75 1005.5
20190215054204 29 34 0.0 2.0 0.00 0.00 0.00 75 1005.5
20190215053704 29 34 0.0 2.0 0.00 0.00 0.00 75 1005.4
20190215053204 29 34 0.0 2.0 0.00 0.00 0.00 75 1005.6
20190215052704 29 34 0.0 3.0 0.00 0.00 0.00 75 1005.8
20190215052204 29 34 0.0 3.0 0.00 0.00 0.00 75 1005.8
20190215051704 29 34 0.0 3.0 0.00 0.00 0.00 75 1006.1
20190215051205 29 34 0.0 2.0 0.00 0.00 0.00 75 1006.3
20190215050704 29 34 0.0 3.0 0.00 0.00 0.00 74 1006.4
20190215050204 30 34 0.0 3.0 0.00 0.00 0.00 74 1006.4
20190215045704 30 34 0.0 2.0 0.00 0.00 0.00 74 1006.1
20190215045204 30 57 0.0 2.0 0.00 0.00 0.00 74 1006.2
20190215044704 30 57 0.0 2.0 0.00 0.00 0.00 74 1006.3
20190215044204 30 57 0.0 1.0 0.00 0.00 0.00 73 1006.3
20190215043704 30 93 0.0 0.0 0.00 0.00 0.00 73 1006.3
20190215043205 30 93 0.0 2.0 0.00 0.00 0.00 73 1006.6
20190215042704 30 93 0.0 2.0 0.00 0.00 0.00 73 1006.6
20190215042205 30 93 0.0 2.0 0.00 0.00 0.00 73 1006.5
20190215041704 30 93 0.0 6.0 0.00 0.00 0.00 73 1006.6
20190215041204 30 93 0.0 6.0 0.00 0.00 0.00 73 1006.6
20190215040704 30 93 1.0 4.0 0.00 0.00 0.00 73 1006.9
20190215040204 30 104 0.0 4.0 0.00 0.00 0.00 73 1006.9
20190215035704 30 113 0.0 4.0 0.00 0.00 0.00 72 1007.0
20190215035204 30 113 1.0 6.0 0.00 0.00 0.00 72 1007.0
20190215034704 30 102 1.0 6.0 0.00 0.00 0.00 72 1007.1
20190215034204 30 103 1.0 6.0 0.00 0.00 0.00 72 1007.2
20190215033704 31 95 1.0 7.0 0.00 0.00 0.00 72 1007.3
20190215033204 31 102 1.0 7.0 0.00 0.00 0.00 72 1007.1
20190215032705 31 157 1.0 7.0 0.00 0.00 0.00 72 1007.3
20190215032204 31 92 0.0 3.0 0.00 0.00 0.00 72 1007.3
20190215031705 31 93 0.0 3.0 0.00 0.00 0.00 72 1007.3
20190215031204 31 81 0.0 4.0 0.00 0.00 0.00 71 1007.3
20190215030704 31 81 1.0 4.0 0.00 0.00 0.00 76 1007.1
20190215030204 31 117 1.0 4.0 0.00 0.00 0.00 71 1007.1
20190215025705 31 142 1.0 3.0 0.00 0.00 0.00 71 1007.3
20190215025204 31 148 0.0 3.0 0.00 0.00 0.00 70 1007.6
20190215024705 32 92 0.0 3.0 0.00 0.00 0.00 70 1007.7
20190215024204 32 105 0.0 3.0 0.00 0.00 0.00 70 1007.9
20190215023704 32 101 0.0 3.0 0.00 0.00 0.00 70 1007.8
20190215023204 32 101 0.0 3.0 0.00 0.00 0.00 70 1008.0
20190215022704 32 102 0.0 3.0 0.00 0.00 0.00 69 1007.8
20190215022205 32 102 0.0 3.0 0.00 0.00 0.00 69 1007.8
20190215021704 32 92 0.0 3.0 0.00 0.00 0.00 69 1008.0
20190215021205 32 92 0.0 3.0 0.00 0.00 0.00 70 1007.9
20190215020704 33 101 0.0 3.0 0.00 0.00 0.00 70 1007.7
20190215020204 33 126 0.0 3.0 0.00 0.00 0.00 70 1007.5
20190215015704 33 120 0.0 3.0 0.00 0.00 0.00 70 1007.3
20190215015204 33 100 0.0 3.0 0.00 0.00 0.00 69 1007.5
20190215014704 33 100 0.0 3.0 0.00 0.00 0.00 69 1007.6
20190215014205 33 100 0.0 3.0 0.00 0.00 0.00 69 1007.7
20190215013704 33 100 0.0 3.0 0.00 0.00 0.00 69 1007.8
20190215013204 33 100 0.0 3.0 0.00 0.00 0.00 68 1007.9
20190215012704 33 96 0.0 3.0 0.00 0.00 0.00 68 1007.6
20190215012204 33 96 0.0 3.0 0.00 0.00 0.00 67 1007.7
20190215011705 33 96 0.0 3.0 0.00 0.00 0.00 67 1007.9
20190215011204 33 97 0.0 3.0 0.00 0.00 0.00 66 1007.9
20190215010704 33 97 0.0 5.0 0.00 0.00 0.00 65 1008.0
20190215010204 33 97 0.0 5.0 0.00 0.00 0.00 66 1007.9
20190215005704 33 97 1.0 5.0 0.00 0.00 0.00 65 1008.0
20190215005204 34 105 1.0 5.0 0.00 0.00 0.00 65 1008.3
20190215004706 34 78 1.0 4.0 0.00 0.00 0.00 65 1008.2
20190215004205 34 96 1.0 3.0 0.00 0.00 0.00 65 1008.3
20190215003704 34 112 1.0 3.0 0.00 0.00 0.00 64 1008.3
20190215003204 34 88 1.0 3.0 0.00 0.00 0.00 64 1008.2
20190215002705 35 96 0.0 3.0 0.00 0.00 0.00 64 1008.2
20190215002204 35 83 0.0 5.0 0.00 0.00 0.00 63 1007.7
20190215001705 35 63 1.0 6.0 0.00 0.00 0.00 63 1007.7
20190215001204 35 94 1.0 6.0 0.00 0.00 0.00 62 1007.9
20190215000705 35 95 1.0 5.0 0.00 0.00 0.00 62 1007.7
20190215000204 36 53 1.0 5.0 0.00 0.00 0.00 62 1007.7
20190214235704 36 107 1.0 5.0 0.00 0.00 0.00 62 1008.0
20190214235204 36 102 1.0 4.0 0.00 0.00 0.00 62 1008.0
20190214234704 37 107 1.0 5.0 0.00 0.00 0.00 62 1007.8
20190214234205 37 111 1.0 5.0 0.00 0.00 0.00 61 1007.9
20190214233704 37 103 1.0 5.0 0.00 0.00 0.00 61 1007.9
20190214233204 37 98 1.0 3.0 0.00 0.00 0.00 61 1007.9
20190214232704 37 140 1.0 3.0 0.00 0.00 0.00 60 1007.9
20190214232205 38 111 0.0 3.0 0.00 0.00 0.00 60 1007.9
20190214231704 38 105 0.0 3.0 0.00 0.00 0.00 60 1008.0